Date_Time,Julian_Date,Latitude,Longitude,Instrument_Depth,U,V,Speed,Direction
(yyyy-mm-dd hh:mn:ss UTC),(JD),(+ deg. North),(+ deg. East),(m),(cm/s),(cm/s),(cm/s),(deg True)
1983-04-25 19:00:00 UTC,2445450.291667,28.7317,-95.2428,0215,-1.29,-4.83,5.0000,195.0000
1983-04-25 19:30:00 UTC,2445450.312500,28.7317,-95.2428,0215,-1.45,-5.82,6.0000,194.0000
1983-04-25 20:00:00 UTC,2445450.333333,28.7317,-95.2428,0215,-1.35,-5.85,6.0000,193.0000
1983-04-25 20:30:00 UTC,2445450.354167,28.7317,-95.2428,0215,-1.69,-6.79,7.0000,194.0000
1983-04-25 21:00:00 UTC,2445450.375000,28.7317,-95.2428,0215,-2.48,-8.65,9.0000,196.0000
1983-04-25 21:30:00 UTC,2445450.395833,28.7317,-95.2428,0215,-2.92,-9.56,10.0000,197.0000
1983-04-25 22:00:00 UTC,2445450.416667,28.7317,-95.2428,0215,-3.58,-10.40,11.0000,199.0000
1983-04-25 22:30:00 UTC,2445450.437500,28.7317,-95.2428,0215,-4.30,-11.20,12.0000,201.0000
1983-04-25 23:00:00 UTC,2445450.458333,28.7317,-95.2428,0215,-4.50,-11.13,12.0000,202.0000
1983-04-25 23:30:00 UTC,2445450.479167,28.7317,-95.2428,0215,-5.08,-11.97,13.0000,203.0000
1983-04-26 00:00:00 UTC,2445450.500000,28.7317,-95.2428,0215,-4.66,-12.14,13.0000,201.0000
1983-04-26 00:30:00 UTC,2445450.520833,28.7317,-95.2428,0215,-2.10,-10.80,11.0000,191.0000
1983-04-26 01:00:00 UTC,2445450.541667,28.7317,-95.2428,0215,0.28,-8.00,8.0000,178.0000
1983-04-26 01:30:00 UTC,2445450.562500,28.7317,-95.2428,0215,1.34,-6.87,7.0000,169.0000
1983-04-26 02:00:00 UTC,2445450.583333,28.7317,-95.2428,0215,1.94,-7.76,8.0000,166.0000
1983-04-26 02:30:00 UTC,2445450.604167,28.7317,-95.2428,0215,1.94,-7.76,8.0000,166.0000
1983-04-26 03:00:00 UTC,2445450.625000,28.7317,-95.2428,0215,1.11,-7.92,8.0000,172.0000
1983-04-26 03:30:00 UTC,2445450.645833,28.7317,-95.2428,0215,0.47,-8.99,9.0000,177.0000
1983-04-26 04:00:00 UTC,2445450.666667,28.7317,-95.2428,0215,0.56,-7.98,8.0000,176.0000
1983-04-26 04:30:00 UTC,2445450.687500,28.7317,-95.2428,0215,0.94,-5.93,6.0000,171.0000
1983-04-26 05:00:00 UTC,2445450.708333,28.7317,-95.2428,0215,1.14,-5.89,6.0000,169.0000
1983-04-26 05:30:00 UTC,2445450.729167,28.7317,-95.2428,0215,1.57,-6.82,7.0000,167.0000
1983-04-26 06:00:00 UTC,2445450.750000,28.7317,-95.2428,0215,1.45,-5.82,6.0000,166.0000
1983-04-26 06:30:00 UTC,2445450.770833,28.7317,-95.2428,0215,1.35,-5.85,6.0000,167.0000
1983-04-26 07:00:00 UTC,2445450.791667,28.7317,-95.2428,0215,0.84,-5.94,6.0000,172.0000
1983-04-26 07:30:00 UTC,2445450.812500,28.7317,-95.2428,0215,0.73,-6.96,7.0000,174.0000
1983-04-26 08:00:00 UTC,2445450.833333,28.7317,-95.2428,0215,0.61,-6.97,7.0000,175.0000
1983-04-26 08:30:00 UTC,2445450.854167,28.7317,-95.2428,0215,0.28,-8.00,8.0000,178.0000
1983-04-26 09:00:00 UTC,2445450.875000,28.7317,-95.2428,0215,-0.16,-9.00,9.0000,181.0000
1983-04-26 09:30:00 UTC,2445450.895833,28.7317,-95.2428,0215,-0.31,-8.99,9.0000,182.0000
1983-04-26 10:00:00 UTC,2445450.916667,28.7317,-95.2428,0215,-0.52,-9.99,10.0000,183.0000
1983-04-26 10:30:00 UTC,2445450.937500,28.7317,-95.2428,0215,-0.96,-10.96,11.0000,185.0000
1983-04-26 11:00:00 UTC,2445450.958333,28.7317,-95.2428,0215,-1.53,-10.89,11.0000,188.0000
1983-04-26 11:30:00 UTC,2445450.979167,28.7317,-95.2428,0215,-1.53,-10.89,11.0000,188.0000
1983-04-26 12:00:00 UTC,2445451.000000,28.7317,-95.2428,0215,-1.34,-10.92,11.0000,187.0000
1983-04-26 12:30:00 UTC,2445451.020833,28.7317,-95.2428,0215,-0.70,-9.98,10.0000,184.0000
1983-04-26 13:00:00 UTC,2445451.041667,28.7317,-95.2428,0215,-0.52,-9.99,10.0000,183.0000
1983-04-26 13:30:00 UTC,2445451.062500,28.7317,-95.2428,0215,-0.63,-8.98,9.0000,184.0000
1983-04-26 14:00:00 UTC,2445451.083333,28.7317,-95.2428,0215,-0.63,-8.98,9.0000,184.0000
1983-04-26 14:30:00 UTC,2445451.104167,28.7317,-95.2428,0215,-0.63,-8.98,9.0000,184.0000
1983-04-26 15:00:00 UTC,2445451.125000,28.7317,-95.2428,0215,-0.63,-8.98,9.0000,184.0000
1983-04-26 15:30:00 UTC,2445451.145833,28.7317,-95.2428,0215,-0.37,-6.99,7.0000,183.0000
1983-04-26 16:00:00 UTC,2445451.166667,28.7317,-95.2428,0215,-0.21,-6.00,6.0000,182.0000
1983-04-26 16:30:00 UTC,2445451.187500,28.7317,-95.2428,0215,-0.21,-6.00,6.0000,182.0000
1983-04-26 17:00:00 UTC,2445451.208333,28.7317,-95.2428,0215,-0.09,-5.00,5.0000,181.0000
1983-04-26 17:30:00 UTC,2445451.229167,28.7317,-95.2428,0215,-0.10,-6.00,6.0000,181.0000
1983-04-26 18:00:00 UTC,2445451.250000,28.7317,-95.2428,0215,-0.21,-6.00,6.0000,182.0000
1983-04-26 18:30:00 UTC,2445451.270833,28.7317,-95.2428,0215,-0.10,-6.00,6.0000,181.0000
1983-04-26 19:00:00 UTC,2445451.291667,28.7317,-95.2428,0215,0.00,-5.00,5.0000,180.0000
1983-04-26 19:30:00 UTC,2445451.312500,28.7317,-95.2428,0215,-0.31,-5.99,6.0000,183.0000
1983-04-26 20:00:00 UTC,2445451.333333,28.7317,-95.2428,0215,-0.42,-5.99,6.0000,184.0000
1983-04-26 20:30:00 UTC,2445451.354167,28.7317,-95.2428,0215,-0.61,-6.97,7.0000,185.0000
1983-04-26 21:00:00 UTC,2445451.375000,28.7317,-95.2428,0215,-1.11,-7.92,8.0000,188.0000
1983-04-26 21:30:00 UTC,2445451.395833,28.7317,-95.2428,0215,-1.53,-7.85,8.0000,191.0000
1983-04-26 22:00:00 UTC,2445451.416667,28.7317,-95.2428,0215,-1.87,-8.80,9.0000,192.0000
1983-04-26 22:30:00 UTC,2445451.437500,28.7317,-95.2428,0215,-1.25,-8.91,9.0000,188.0000
1983-04-26 23:00:00 UTC,2445451.458333,28.7317,-95.2428,0215,-0.87,-9.96,10.0000,185.0000
1983-04-26 23:30:00 UTC,2445451.479167,28.7317,-95.2428,0215,-0.87,-9.96,10.0000,185.0000
1983-04-27 00:00:00 UTC,2445451.500000,28.7317,-95.2428,0215,-1.34,-10.92,11.0000,187.0000
1983-04-27 00:30:00 UTC,2445451.520833,28.7317,-95.2428,0215,-1.53,-10.89,11.0000,188.0000
1983-04-27 01:00:00 UTC,2445451.541667,28.7317,-95.2428,0215,-1.53,-10.89,11.0000,188.0000
1983-04-27 01:30:00 UTC,2445451.562500,28.7317,-95.2428,0215,-1.05,-9.95,10.0000,186.0000
1983-04-27 02:00:00 UTC,2445451.583333,28.7317,-95.2428,0215,-1.05,-9.95,10.0000,186.0000
1983-04-27 02:30:00 UTC,2445451.604167,28.7317,-95.2428,0215,-0.87,-9.96,10.0000,185.0000
1983-04-27 03:00:00 UTC,2445451.625000,28.7317,-95.2428,0215,-0.87,-9.96,10.0000,185.0000
1983-04-27 03:30:00 UTC,2445451.645833,28.7317,-95.2428,0215,-0.87,-9.96,10.0000,185.0000
1983-04-27 04:00:00 UTC,2445451.666667,28.7317,-95.2428,0215,-0.87,-9.96,10.0000,185.0000
1983-04-27 04:30:00 UTC,2445451.687500,28.7317,-95.2428,0215,-0.78,-8.97,9.0000,185.0000
1983-04-27 05:00:00 UTC,2445451.708333,28.7317,-95.2428,0215,-0.94,-8.95,9.0000,186.0000
1983-04-27 05:30:00 UTC,2445451.729167,28.7317,-95.2428,0215,-1.22,-9.93,10.0000,187.0000
1983-04-27 06:00:00 UTC,2445451.750000,28.7317,-95.2428,0215,-1.05,-9.95,10.0000,186.0000
1983-04-27 06:30:00 UTC,2445451.770833,28.7317,-95.2428,0215,-0.63,-8.98,9.0000,184.0000
1983-04-27 07:00:00 UTC,2445451.791667,28.7317,-95.2428,0215,-0.16,-9.00,9.0000,181.0000
1983-04-27 07:30:00 UTC,2445451.812500,28.7317,-95.2428,0215,-0.17,-10.00,10.0000,181.0000
1983-04-27 08:00:00 UTC,2445451.833333,28.7317,-95.2428,0215,-1.05,-9.95,10.0000,186.0000
1983-04-27 08:30:00 UTC,2445451.854167,28.7317,-95.2428,0215,-3.22,-10.52,11.0000,197.0000
1983-04-27 09:00:00 UTC,2445451.875000,28.7317,-95.2428,0215,-5.59,-8.29,10.0000,214.0000
1983-04-27 09:30:00 UTC,2445451.895833,28.7317,-95.2428,0215,-8.04,-7.50,11.0000,227.0000
1983-04-27 10:00:00 UTC,2445451.916667,28.7317,-95.2428,0215,-9.46,-7.39,12.0000,232.0000
1983-04-27 10:30:00 UTC,2445451.937500,28.7317,-95.2428,0215,-9.71,-7.05,12.0000,234.0000
1983-04-27 11:00:00 UTC,2445451.958333,28.7317,-95.2428,0215,-8.92,-8.03,12.0000,228.0000
1983-04-27 11:30:00 UTC,2445451.979167,28.7317,-95.2428,0215,-6.62,-8.79,11.0000,217.0000
1983-04-27 12:00:00 UTC,2445452.000000,28.7317,-95.2428,0215,-5.74,-8.19,10.0000,215.0000
1983-04-27 12:30:00 UTC,2445452.020833,28.7317,-95.2428,0215,-6.16,-7.88,10.0000,218.0000
1983-04-27 13:00:00 UTC,2445452.041667,28.7317,-95.2428,0215,-4.77,-7.63,9.0000,212.0000
1983-04-27 13:30:00 UTC,2445452.062500,28.7317,-95.2428,0215,-2.21,-7.69,8.0000,196.0000
1983-04-27 14:00:00 UTC,2445452.083333,28.7317,-95.2428,0215,-0.94,-8.95,9.0000,186.0000
1983-04-27 14:30:00 UTC,2445452.104167,28.7317,-95.2428,0215,-0.52,-9.99,10.0000,183.0000
1983-04-27 15:00:00 UTC,2445452.125000,28.7317,-95.2428,0215,0.00,-10.00,10.0000,180.0000
1983-04-27 15:30:00 UTC,2445452.145833,28.7317,-95.2428,0215,0.70,-7.97,8.0000,175.0000
1983-04-27 16:00:00 UTC,2445452.166667,28.7317,-95.2428,0215,0.97,-7.94,8.0000,173.0000
1983-04-27 16:30:00 UTC,2445452.187500,28.7317,-95.2428,0215,0.63,-8.98,9.0000,176.0000
1983-04-27 17:00:00 UTC,2445452.208333,28.7317,-95.2428,0215,0.16,-9.00,9.0000,179.0000
1983-04-27 17:30:00 UTC,2445452.229167,28.7317,-95.2428,0215,0.00,-9.00,9.0000,180.0000
1983-04-27 18:00:00 UTC,2445452.250000,28.7317,-95.2428,0215,-0.47,-8.99,9.0000,183.0000
1983-04-27 18:30:00 UTC,2445452.270833,28.7317,-95.2428,0215,-0.87,-9.96,10.0000,185.0000
1983-04-27 19:00:00 UTC,2445452.291667,28.7317,-95.2428,0215,-0.87,-9.96,10.0000,185.0000
1983-04-27 19:30:00 UTC,2445452.312500,28.7317,-95.2428,0215,-1.22,-9.93,10.0000,187.0000
1983-04-27 20:00:00 UTC,2445452.333333,28.7317,-95.2428,0215,-1.34,-10.92,11.0000,187.0000
1983-04-27 20:30:00 UTC,2445452.354167,28.7317,-95.2428,0215,-1.46,-11.91,12.0000,187.0000
1983-04-27 21:00:00 UTC,2445452.375000,28.7317,-95.2428,0215,-2.08,-11.82,12.0000,190.0000
1983-04-27 21:30:00 UTC,2445452.395833,28.7317,-95.2428,0215,-3.31,-11.54,12.0000,196.0000
1983-04-27 22:00:00 UTC,2445452.416667,28.7317,-95.2428,0215,-5.45,-10.69,12.0000,207.0000
1983-04-27 22:30:00 UTC,2445452.437500,28.7317,-95.2428,0215,-7.39,-9.46,12.0000,218.0000
1983-04-27 23:00:00 UTC,2445452.458333,28.7317,-95.2428,0215,-8.34,-8.63,12.0000,224.0000
1983-04-27 23:30:00 UTC,2445452.479167,28.7317,-95.2428,0215,-7.50,-8.04,11.0000,223.0000
1983-04-28 00:00:00 UTC,2445452.500000,28.7317,-95.2428,0215,-6.95,-7.19,10.0000,224.0000
1983-04-28 00:30:00 UTC,2445452.520833,28.7317,-95.2428,0215,-7.88,-6.16,10.0000,232.0000
1983-04-28 01:00:00 UTC,2445452.541667,28.7317,-95.2428,0215,-8.48,-5.30,10.0000,238.0000
1983-04-28 01:30:00 UTC,2445452.562500,28.7317,-95.2428,0215,-9.23,-5.99,11.0000,237.0000
1983-04-28 02:00:00 UTC,2445452.583333,28.7317,-95.2428,0215,-8.55,-6.92,11.0000,231.0000
1983-04-28 02:30:00 UTC,2445452.604167,28.7317,-95.2428,0215,-7.91,-7.64,11.0000,226.0000
1983-04-28 03:00:00 UTC,2445452.625000,28.7317,-95.2428,0215,-6.92,-8.55,11.0000,219.0000
1983-04-28 03:30:00 UTC,2445452.645833,28.7317,-95.2428,0215,-4.54,-8.91,10.0000,207.0000
1983-04-28 04:00:00 UTC,2445452.666667,28.7317,-95.2428,0215,-3.94,-10.27,11.0000,201.0000
1983-04-28 04:30:00 UTC,2445452.687500,28.7317,-95.2428,0215,-5.16,-9.71,11.0000,208.0000
1983-04-28 05:00:00 UTC,2445452.708333,28.7317,-95.2428,0215,-6.16,-7.88,10.0000,218.0000
1983-04-28 05:30:00 UTC,2445452.729167,28.7317,-95.2428,0215,-6.82,-7.31,10.0000,223.0000
1983-04-28 06:00:00 UTC,2445452.750000,28.7317,-95.2428,0215,-6.02,-6.69,9.0000,222.0000
1983-04-28 06:30:00 UTC,2445452.770833,28.7317,-95.2428,0215,-4.11,-5.66,7.0000,216.0000
1983-04-28 07:00:00 UTC,2445452.791667,28.7317,-95.2428,0215,-2.63,-5.39,6.0000,206.0000
1983-04-28 07:30:00 UTC,2445452.812500,28.7317,-95.2428,0215,-1.71,-4.70,5.0000,200.0000
1983-04-28 08:00:00 UTC,2445452.833333,28.7317,-95.2428,0215,-2.19,-4.49,5.0000,206.0000
1983-04-28 08:30:00 UTC,2445452.854167,28.7317,-95.2428,0215,-3.28,-3.77,5.0000,221.0000
1983-04-28 09:00:00 UTC,2445452.875000,28.7317,-95.2428,0215,-2.33,-1.89,3.0000,231.0000
1983-04-28 09:30:00 UTC,2445452.895833,28.7317,-95.2428,0215,-0.84,-0.54,1.0000,237.0000
1983-04-28 10:00:00 UTC,2445452.916667,28.7317,-95.2428,0215,0.95,-0.33,1.0000,109.0000
1983-04-28 10:30:00 UTC,2445452.937500,28.7317,-95.2428,0215,0.91,-0.42,1.0000,115.0000
1983-04-28 11:00:00 UTC,2445452.958333,28.7317,-95.2428,0215,0.78,-0.63,1.0000,129.0000
1983-04-28 11:30:00 UTC,2445452.979167,28.7317,-95.2428,0215,1.36,-1.46,2.0000,137.0000
1983-04-28 12:00:00 UTC,2445453.000000,28.7317,-95.2428,0215,2.12,-2.12,3.0000,135.0000
1983-04-28 12:30:00 UTC,2445453.020833,28.7317,-95.2428,0215,3.54,-3.54,5.0000,135.0000
1983-04-28 13:00:00 UTC,2445453.041667,28.7317,-95.2428,0215,3.35,-3.72,5.0000,138.0000
1983-04-28 13:30:00 UTC,2445453.062500,28.7317,-95.2428,0215,2.05,-2.19,3.0000,137.0000
1983-04-28 14:00:00 UTC,2445453.083333,28.7317,-95.2428,0215,3.15,-2.46,4.0000,128.0000
1983-04-28 14:30:00 UTC,2445453.104167,28.7317,-95.2428,0215,3.94,-3.08,5.0000,128.0000
1983-04-28 15:00:00 UTC,2445453.125000,28.7317,-95.2428,0215,4.39,-4.09,6.0000,133.0000
1983-04-28 15:30:00 UTC,2445453.145833,28.7317,-95.2428,0215,3.53,-4.85,6.0000,144.0000
1983-04-28 16:00:00 UTC,2445453.166667,28.7317,-95.2428,0215,1.55,-4.76,5.0000,162.0000
1983-04-28 16:30:00 UTC,2445453.187500,28.7317,-95.2428,0215,-0.10,-6.00,6.0000,181.0000
1983-04-28 17:00:00 UTC,2445453.208333,28.7317,-95.2428,0215,-1.11,-7.92,8.0000,188.0000
1983-04-28 17:30:00 UTC,2445453.229167,28.7317,-95.2428,0215,-1.11,-7.92,8.0000,188.0000
1983-04-28 18:00:00 UTC,2445453.250000,28.7317,-95.2428,0215,-1.66,-7.83,8.0000,192.0000
1983-04-28 18:30:00 UTC,2445453.270833,28.7317,-95.2428,0215,-3.08,-8.46,9.0000,200.0000
1983-04-28 19:00:00 UTC,2445453.291667,28.7317,-95.2428,0215,-3.23,-8.40,9.0000,201.0000
1983-04-28 19:30:00 UTC,2445453.312500,28.7317,-95.2428,0215,-2.85,-6.39,7.0000,204.0000
1983-04-28 20:00:00 UTC,2445453.333333,28.7317,-95.2428,0215,-4.11,-5.66,7.0000,216.0000
1983-04-28 20:30:00 UTC,2445453.354167,28.7317,-95.2428,0215,-3.78,-4.66,6.0000,219.0000
1983-04-28 21:00:00 UTC,2445453.375000,28.7317,-95.2428,0215,-3.39,-6.12,7.0000,209.0000
1983-04-28 21:30:00 UTC,2445453.395833,28.7317,-95.2428,0215,-3.25,-7.31,8.0000,204.0000
1983-04-28 22:00:00 UTC,2445453.416667,28.7317,-95.2428,0215,-4.09,-8.02,9.0000,207.0000
1983-04-28 22:30:00 UTC,2445453.437500,28.7317,-95.2428,0215,-4.36,-7.87,9.0000,209.0000
1983-04-28 23:00:00 UTC,2445453.458333,28.7317,-95.2428,0215,-4.00,-6.93,8.0000,210.0000
1983-04-28 23:30:00 UTC,2445453.479167,28.7317,-95.2428,0215,-4.00,-6.93,8.0000,210.0000
1983-04-29 00:00:00 UTC,2445453.500000,28.7317,-95.2428,0215,-4.00,-6.93,8.0000,210.0000
1983-04-29 00:30:00 UTC,2445453.520833,28.7317,-95.2428,0215,-4.24,-6.78,8.0000,212.0000
1983-04-29 01:00:00 UTC,2445453.541667,28.7317,-95.2428,0215,-5.42,-7.19,9.0000,217.0000
1983-04-29 01:30:00 UTC,2445453.562500,28.7317,-95.2428,0215,-6.95,-7.19,10.0000,224.0000
1983-04-29 02:00:00 UTC,2445453.583333,28.7317,-95.2428,0215,-7.99,-6.02,10.0000,233.0000
1983-04-29 02:30:00 UTC,2445453.604167,28.7317,-95.2428,0215,-7.46,-5.03,9.0000,236.0000
1983-04-29 03:00:00 UTC,2445453.625000,28.7317,-95.2428,0215,-6.39,-4.81,8.0000,233.0000
1983-04-29 03:30:00 UTC,2445453.645833,28.7317,-95.2428,0215,-6.30,-4.93,8.0000,232.0000
1983-04-29 04:00:00 UTC,2445453.666667,28.7317,-95.2428,0215,-5.28,-4.59,7.0000,229.0000
1983-04-29 04:30:00 UTC,2445453.687500,28.7317,-95.2428,0215,-3.53,-4.85,6.0000,216.0000
1983-04-29 05:00:00 UTC,2445453.708333,28.7317,-95.2428,0215,-1.71,-4.70,5.0000,200.0000
1983-04-29 05:30:00 UTC,2445453.729167,28.7317,-95.2428,0215,-1.75,-5.74,6.0000,197.0000
1983-04-29 06:00:00 UTC,2445453.750000,28.7317,-95.2428,0215,-1.95,-5.67,6.0000,199.0000
1983-04-29 06:30:00 UTC,2445453.770833,28.7317,-95.2428,0215,-2.16,-6.66,7.0000,198.0000
1983-04-29 07:00:00 UTC,2445453.791667,28.7317,-95.2428,0215,-2.28,-6.62,7.0000,199.0000
1983-04-29 07:30:00 UTC,2445453.812500,28.7317,-95.2428,0215,-3.25,-7.31,8.0000,204.0000
1983-04-29 08:00:00 UTC,2445453.833333,28.7317,-95.2428,0215,-3.95,-8.09,9.0000,206.0000
1983-04-29 08:30:00 UTC,2445453.854167,28.7317,-95.2428,0215,-3.80,-8.16,9.0000,205.0000
1983-04-29 09:00:00 UTC,2445453.875000,28.7317,-95.2428,0215,-3.66,-8.22,9.0000,204.0000
1983-04-29 09:30:00 UTC,2445453.895833,28.7317,-95.2428,0215,-3.00,-7.42,8.0000,202.0000
1983-04-29 10:00:00 UTC,2445453.916667,28.7317,-95.2428,0215,-2.34,-7.65,8.0000,197.0000
1983-04-29 10:30:00 UTC,2445453.937500,28.7317,-95.2428,0215,-1.80,-7.79,8.0000,193.0000
1983-04-29 11:00:00 UTC,2445453.958333,28.7317,-95.2428,0215,-1.80,-7.79,8.0000,193.0000
1983-04-29 11:30:00 UTC,2445453.979167,28.7317,-95.2428,0215,-1.94,-7.76,8.0000,194.0000
1983-04-29 12:00:00 UTC,2445454.000000,28.7317,-95.2428,0215,-1.46,-6.85,7.0000,192.0000
1983-04-29 12:30:00 UTC,2445454.020833,28.7317,-95.2428,0215,-1.39,-7.88,8.0000,190.0000
1983-04-29 13:00:00 UTC,2445454.041667,28.7317,-95.2428,0215,-1.41,-8.89,9.0000,189.0000
1983-04-29 13:30:00 UTC,2445454.062500,28.7317,-95.2428,0215,-1.25,-8.91,9.0000,188.0000
1983-04-29 14:00:00 UTC,2445454.083333,28.7317,-95.2428,0215,-0.42,-7.99,8.0000,183.0000
1983-04-29 14:30:00 UTC,2445454.104167,28.7317,-95.2428,0215,-0.12,-7.00,7.0000,181.0000
1983-04-29 15:00:00 UTC,2445454.125000,28.7317,-95.2428,0215,-0.37,-6.99,7.0000,183.0000
1983-04-29 15:30:00 UTC,2445454.145833,28.7317,-95.2428,0215,-0.56,-7.98,8.0000,184.0000
1983-04-29 16:00:00 UTC,2445454.166667,28.7317,-95.2428,0215,-0.31,-5.99,6.0000,183.0000
1983-04-29 16:30:00 UTC,2445454.187500,28.7317,-95.2428,0215,-0.17,-5.00,5.0000,182.0000
1983-04-29 17:00:00 UTC,2445454.208333,28.7317,-95.2428,0215,0.00,-4.00,4.0000,180.0000
1983-04-29 17:30:00 UTC,2445454.229167,28.7317,-95.2428,0215,0.14,-4.00,4.0000,178.0000
1983-04-29 18:00:00 UTC,2445454.250000,28.7317,-95.2428,0215,0.21,-3.99,4.0000,177.0000
1983-04-29 18:30:00 UTC,2445454.270833,28.7317,-95.2428,0215,0.14,-4.00,4.0000,178.0000
1983-04-29 19:00:00 UTC,2445454.291667,28.7317,-95.2428,0215,0.14,-4.00,4.0000,178.0000
1983-04-29 19:30:00 UTC,2445454.312500,28.7317,-95.2428,0215,0.28,-3.99,4.0000,176.0000
1983-04-29 20:00:00 UTC,2445454.333333,28.7317,-95.2428,0215,0.14,-4.00,4.0000,178.0000
1983-04-29 20:30:00 UTC,2445454.354167,28.7317,-95.2428,0215,0.00,-4.00,4.0000,180.0000
1983-04-29 21:00:00 UTC,2445454.375000,28.7317,-95.2428,0215,0.09,-5.00,5.0000,179.0000
1983-04-29 21:30:00 UTC,2445454.395833,28.7317,-95.2428,0215,0.09,-5.00,5.0000,179.0000
1983-04-29 22:00:00 UTC,2445454.416667,28.7317,-95.2428,0215,-0.10,-6.00,6.0000,181.0000
1983-04-29 22:30:00 UTC,2445454.437500,28.7317,-95.2428,0215,-0.37,-6.99,7.0000,183.0000
1983-04-29 23:00:00 UTC,2445454.458333,28.7317,-95.2428,0215,-0.84,-7.96,8.0000,186.0000
1983-04-29 23:30:00 UTC,2445454.479167,28.7317,-95.2428,0215,-1.11,-7.92,8.0000,188.0000
1983-04-30 00:00:00 UTC,2445454.500000,28.7317,-95.2428,0215,-1.80,-7.79,8.0000,193.0000
1983-04-30 00:30:00 UTC,2445454.520833,28.7317,-95.2428,0215,-2.87,-7.47,8.0000,201.0000
1983-04-30 01:00:00 UTC,2445454.541667,28.7317,-95.2428,0215,-2.34,-7.65,8.0000,197.0000
1983-04-30 01:30:00 UTC,2445454.562500,28.7317,-95.2428,0215,-1.25,-7.90,8.0000,189.0000
1983-04-30 02:00:00 UTC,2445454.583333,28.7317,-95.2428,0215,-1.10,-8.93,9.0000,187.0000
1983-04-30 02:30:00 UTC,2445454.604167,28.7317,-95.2428,0215,-1.25,-8.91,9.0000,188.0000
1983-04-30 03:00:00 UTC,2445454.625000,28.7317,-95.2428,0215,-2.02,-8.77,9.0000,193.0000
1983-04-30 03:30:00 UTC,2445454.645833,28.7317,-95.2428,0215,-2.47,-7.61,8.0000,198.0000
1983-04-30 04:00:00 UTC,2445454.666667,28.7317,-95.2428,0215,-2.60,-7.56,8.0000,199.0000
1983-04-30 04:30:00 UTC,2445454.687500,28.7317,-95.2428,0215,-2.60,-7.56,8.0000,199.0000
1983-04-30 05:00:00 UTC,2445454.708333,28.7317,-95.2428,0215,-4.23,-7.95,9.0000,208.0000
1983-04-30 05:30:00 UTC,2445454.729167,28.7317,-95.2428,0215,-6.56,-7.55,10.0000,221.0000
1983-04-30 06:00:00 UTC,2445454.750000,28.7317,-95.2428,0215,-7.64,-7.91,11.0000,224.0000
1983-04-30 06:30:00 UTC,2445454.770833,28.7317,-95.2428,0215,-6.16,-7.88,10.0000,218.0000
1983-04-30 07:00:00 UTC,2445454.791667,28.7317,-95.2428,0215,-5.15,-8.57,10.0000,211.0000
1983-04-30 07:30:00 UTC,2445454.812500,28.7317,-95.2428,0215,-3.75,-9.27,10.0000,202.0000
1983-04-30 08:00:00 UTC,2445454.833333,28.7317,-95.2428,0215,-2.18,-8.73,9.0000,194.0000
1983-04-30 08:30:00 UTC,2445454.854167,28.7317,-95.2428,0215,-1.41,-8.89,9.0000,189.0000
1983-04-30 09:00:00 UTC,2445454.875000,28.7317,-95.2428,0215,-1.25,-7.90,8.0000,189.0000
1983-04-30 09:30:00 UTC,2445454.895833,28.7317,-95.2428,0215,-1.39,-7.88,8.0000,190.0000
1983-04-30 10:00:00 UTC,2445454.916667,28.7317,-95.2428,0215,-1.56,-8.86,9.0000,190.0000
1983-04-30 10:30:00 UTC,2445454.937500,28.7317,-95.2428,0215,-1.87,-8.80,9.0000,192.0000
1983-04-30 11:00:00 UTC,2445454.958333,28.7317,-95.2428,0215,-1.80,-7.79,8.0000,193.0000
1983-04-30 11:30:00 UTC,2445454.979167,28.7317,-95.2428,0215,-1.53,-7.85,8.0000,191.0000
1983-04-30 12:00:00 UTC,2445455.000000,28.7317,-95.2428,0215,-1.11,-7.92,8.0000,188.0000
1983-04-30 12:30:00 UTC,2445455.020833,28.7317,-95.2428,0215,-0.97,-6.93,7.0000,188.0000
1983-04-30 13:00:00 UTC,2445455.041667,28.7317,-95.2428,0215,-1.39,-7.88,8.0000,190.0000
1983-04-30 13:30:00 UTC,2445455.062500,28.7317,-95.2428,0215,-1.11,-7.92,8.0000,188.0000
1983-04-30 14:00:00 UTC,2445455.083333,28.7317,-95.2428,0215,-1.11,-7.92,8.0000,188.0000
1983-04-30 14:30:00 UTC,2445455.104167,28.7317,-95.2428,0215,-1.39,-7.88,8.0000,190.0000
1983-04-30 15:00:00 UTC,2445455.125000,28.7317,-95.2428,0215,-1.39,-7.88,8.0000,190.0000
1983-04-30 15:30:00 UTC,2445455.145833,28.7317,-95.2428,0215,-0.85,-6.95,7.0000,187.0000
1983-04-30 16:00:00 UTC,2445455.166667,28.7317,-95.2428,0215,-0.97,-6.93,7.0000,188.0000
1983-04-30 16:30:00 UTC,2445455.187500,28.7317,-95.2428,0215,-0.84,-5.94,6.0000,188.0000
1983-04-30 17:00:00 UTC,2445455.208333,28.7317,-95.2428,0215,0.07,-4.00,4.0000,179.0000
1983-04-30 17:30:00 UTC,2445455.229167,28.7317,-95.2428,0215,1.41,-2.65,3.0000,152.0000
1983-04-30 18:00:00 UTC,2445455.250000,28.7317,-95.2428,0215,2.46,-3.15,4.0000,142.0000
1983-04-30 18:30:00 UTC,2445455.270833,28.7317,-95.2428,0215,2.58,-4.29,5.0000,149.0000
1983-04-30 19:00:00 UTC,2445455.291667,28.7317,-95.2428,0215,1.71,-4.70,5.0000,160.0000
1983-04-30 19:30:00 UTC,2445455.312500,28.7317,-95.2428,0215,1.04,-4.89,5.0000,168.0000
1983-04-30 20:00:00 UTC,2445455.333333,28.7317,-95.2428,0215,0.61,-4.96,5.0000,173.0000
1983-04-30 20:30:00 UTC,2445455.354167,28.7317,-95.2428,0215,0.14,-4.00,4.0000,178.0000
1983-04-30 21:00:00 UTC,2445455.375000,28.7317,-95.2428,0215,0.00,-5.00,5.0000,180.0000
1983-04-30 21:30:00 UTC,2445455.395833,28.7317,-95.2428,0215,0.52,-4.97,5.0000,174.0000
1983-04-30 22:00:00 UTC,2445455.416667,28.7317,-95.2428,0215,0.87,-4.92,5.0000,170.0000
1983-04-30 22:30:00 UTC,2445455.437500,28.7317,-95.2428,0215,0.52,-4.97,5.0000,174.0000
1983-04-30 23:00:00 UTC,2445455.458333,28.7317,-95.2428,0215,0.00,-4.00,4.0000,180.0000
1983-04-30 23:30:00 UTC,2445455.479167,28.7317,-95.2428,0215,0.07,-4.00,4.0000,179.0000
1983-05-01 00:00:00 UTC,2445455.500000,28.7317,-95.2428,0215,0.07,-4.00,4.0000,179.0000
1983-05-01 00:30:00 UTC,2445455.520833,28.7317,-95.2428,0215,-0.21,-3.99,4.0000,183.0000
1983-05-01 01:00:00 UTC,2445455.541667,28.7317,-95.2428,0215,-0.44,-4.98,5.0000,185.0000
1983-05-01 01:30:00 UTC,2445455.562500,28.7317,-95.2428,0215,-0.26,-4.99,5.0000,183.0000
1983-05-01 02:00:00 UTC,2445455.583333,28.7317,-95.2428,0215,-0.14,-4.00,4.0000,182.0000
1983-05-01 02:30:00 UTC,2445455.604167,28.7317,-95.2428,0215,-0.26,-4.99,5.0000,183.0000
1983-05-01 03:00:00 UTC,2445455.625000,28.7317,-95.2428,0215,-0.35,-3.98,4.0000,185.0000
1983-05-01 03:30:00 UTC,2445455.645833,28.7317,-95.2428,0215,-0.63,-3.95,4.0000,189.0000
1983-05-01 04:00:00 UTC,2445455.666667,28.7317,-95.2428,0215,-1.12,-4.87,5.0000,193.0000
1983-05-01 04:30:00 UTC,2445455.687500,28.7317,-95.2428,0215,-1.12,-4.87,5.0000,193.0000
1983-05-01 05:00:00 UTC,2445455.708333,28.7317,-95.2428,0215,-0.87,-4.92,5.0000,190.0000
1983-05-01 05:30:00 UTC,2445455.729167,28.7317,-95.2428,0215,-0.52,-4.97,5.0000,186.0000
1983-05-01 06:00:00 UTC,2445455.750000,28.7317,-95.2428,0215,-0.26,-4.99,5.0000,183.0000
1983-05-01 06:30:00 UTC,2445455.770833,28.7317,-95.2428,0215,-0.26,-4.99,5.0000,183.0000
1983-05-01 07:00:00 UTC,2445455.791667,28.7317,-95.2428,0215,-0.35,-3.98,4.0000,185.0000
1983-05-01 07:30:00 UTC,2445455.812500,28.7317,-95.2428,0215,-0.42,-3.98,4.0000,186.0000
1983-05-01 08:00:00 UTC,2445455.833333,28.7317,-95.2428,0215,-0.26,-2.99,3.0000,185.0000